RYR149X LDZD-EPRZ

Flight info

Callsign RYR149X
Flight time 1h 14m
Altitude 35000
Route PALEZ DCT RUDIK DCT KOPRY DCT ALAMU DCT SUPAK L999 GEVNA L984 LUXAR
Aircraft A320/M-SDE3FGHIRWY/LB1

Departure

Time 2026-05-05 08:08
Airport Zadar Airport (LDZD)

Arrival

Time 2026-05-05 09:22
Airport Rzeszów-Jasionka Airport (EPRZ)
Time Latitude Longitude Altitude Speed Heading
2026-05-05 07:45 44.09745 15.35415 270 ft 0 kts 327°
2026-05-05 07:57 44.09741 15.35419 270 ft 3 kts 324°
2026-05-05 07:57 44.09724 15.35439 270 ft 4 kts 309°
2026-05-05 07:58 44.09711 15.35470 270 ft 4 kts 287°
2026-05-05 07:58 44.09706 15.35498 270 ft 4 kts 266°
2026-05-05 07:58 44.09706 15.35502 270 ft 0 kts 261°
2026-05-05 08:01 44.09706 15.35500 270 ft 0 kts 271°
2026-05-05 08:01 44.09709 15.35497 270 ft 0 kts 303°
2026-05-05 08:01 44.09713 15.35499 270 ft 0 kts 351°
2026-05-05 08:02 44.09718 15.35506 270 ft 3 kts 36°
2026-05-05 08:02 44.09750 15.35537 270 ft 8 kts 17°
2026-05-05 08:02 44.09828 15.35534 270 ft 14 kts 352°
2026-05-05 08:02 44.09931 15.35481 270 ft 18 kts 321°
2026-05-05 08:03 44.10031 15.35349 270 ft 22 kts 316°
2026-05-05 08:03 44.10146 15.35192 270 ft 24 kts 315°
2026-05-05 08:03 44.10272 15.35021 270 ft 26 kts 316°
2026-05-05 08:03 44.10405 15.34839 270 ft 24 kts 316°
2026-05-05 08:04 44.10528 15.34674 270 ft 25 kts 316°
2026-05-05 08:04 44.10658 15.34499 270 ft 27 kts 316°
2026-05-05 08:04 44.10795 15.34313 270 ft 27 kts 316°
2026-05-05 08:04 44.10933 15.34126 269 ft 23 kts 315°
2026-05-05 08:05 44.11052 15.33962 270 ft 25 kts 315°
2026-05-05 08:05 44.11182 15.33787 270 ft 27 kts 316°
2026-05-05 08:05 44.11316 15.33607 269 ft 24 kts 316°
2026-05-05 08:05 44.11422 15.33464 269 ft 21 kts 315°
2026-05-05 08:06 44.11505 15.33372 269 ft 13 kts
2026-05-05 08:06 44.11573 15.33470 267 ft 16 kts 48°
2026-05-05 08:06 44.11629 15.33591 259 ft 5 kts 114°
2026-05-05 08:06 44.11601 15.33628 260 ft 6 kts 137°
2026-05-05 08:07 44.11531 15.33723 262 ft 39 kts 136°
2026-05-05 08:07 44.11163 15.34218 264 ft 104 kts 136°
2026-05-05 08:07 44.10512 15.35085 273 ft 152 kts 137°
2026-05-05 08:07 44.09751 15.36088 850 ft 148 kts 139°
2026-05-05 08:08 44.08989 15.37065 1516 ft 150 kts 139°
2026-05-05 08:08 44.08212 15.38092 2075 ft 160 kts 137°
2026-05-05 08:08 44.07350 15.39211 2438 ft 178 kts 139°
2026-05-05 08:08 44.06312 15.40329 2703 ft 202 kts 159°
2026-05-05 08:09 44.04861 15.40323 3094 ft 226 kts 201°
2026-05-05 08:09 44.03665 15.38749 3631 ft 257 kts 242°
2026-05-05 08:09 44.03441 15.36224 4438 ft 274 kts 274°
2026-05-05 08:09 44.04027 15.33664 5373 ft 283 kts 290°
2026-05-05 08:10 44.04770 15.31138 6393 ft 282 kts 287°
2026-05-05 08:10 44.05610 15.28660 7276 ft 288 kts 303°
2026-05-05 08:10 44.07111 15.26783 8105 ft 297 kts 329°
2026-05-05 08:10 44.09093 15.25948 8917 ft 303 kts 356°
2026-05-05 08:11 44.11178 15.26384 9760 ft 307 kts 21°
2026-05-05 08:11 44.13177 15.27517 10416 ft 317 kts 23°
2026-05-05 08:11 44.15287 15.28747 10638 ft 340 kts 23°
2026-05-05 08:11 44.17526 15.30057 10969 ft 356 kts 23°
2026-05-05 08:12 44.19838 15.31401 11590 ft 363 kts 22°
2026-05-05 08:12 44.22178 15.32757 12280 ft 366 kts 22°
2026-05-05 08:12 44.24546 15.34125 12983 ft 370 kts 22°
2026-05-05 08:12 44.26936 15.35503 13680 ft 374 kts 21°
2026-05-05 08:13 44.29344 15.36894 14323 ft 377 kts 22°
2026-05-05 08:13 44.31777 15.38305 14943 ft 379 kts 22°
2026-05-05 08:13 44.34222 15.39726 15564 ft 382 kts 22°
2026-05-05 08:13 44.36686 15.41159 16175 ft 385 kts 22°
2026-05-05 08:14 44.39169 15.42603 16788 ft 389 kts 21°
2026-05-05 08:14 44.41680 15.44063 17396 ft 392 kts 21°
2026-05-05 08:14 44.44203 15.45528 18020 ft 394 kts 21°
2026-05-05 08:14 44.46752 15.47009 18585 ft 398 kts 21°
2026-05-05 08:15 44.49314 15.48503 19164 ft 400 kts 21°
2026-05-05 08:15 44.51892 15.50009 19731 ft 403 kts 21°
2026-05-05 08:15 44.54478 15.51561 20329 ft 406 kts 25°
2026-05-05 08:15 44.56910 15.53614 20904 ft 411 kts 35°
2026-05-05 08:16 44.59060 15.56279 21449 ft 415 kts 46°
2026-05-05 08:16 44.60917 15.59473 21980 ft 419 kts 51°
2026-05-05 08:16 44.62702 15.62724 22507 ft 422 kts 51°
2026-05-05 08:16 44.64508 15.65997 23025 ft 425 kts 50°
2026-05-05 08:17 44.66321 15.69284 23536 ft 427 kts 50°
2026-05-05 08:17 44.68145 15.72594 23958 ft 430 kts 50°
2026-05-05 08:17 44.69982 15.75928 24358 ft 433 kts 50°
2026-05-05 08:17 44.71833 15.79289 24772 ft 435 kts 50°
2026-05-05 08:18 44.73691 15.82668 25170 ft 438 kts 50°
2026-05-05 08:18 44.75556 15.86072 25562 ft 440 kts 50°
2026-05-05 08:18 44.77428 15.89497 25954 ft 443 kts 50°
2026-05-05 08:18 44.79306 15.92938 26349 ft 444 kts 50°
2026-05-05 08:19 44.81191 15.96397 26745 ft 446 kts 50°
2026-05-05 08:19 44.83085 15.99878 27137 ft 448 kts 50°
2026-05-05 08:19 44.84984 16.03371 27509 ft 451 kts 50°
2026-05-05 08:19 44.86897 16.06893 27864 ft 453 kts 50°
2026-05-05 08:20 44.88814 16.10422 28235 ft 455 kts 50°
2026-05-05 08:20 44.90742 16.13980 28591 ft 458 kts 50°
2026-05-05 08:20 44.92678 16.17558 28942 ft 460 kts 50°
2026-05-05 08:20 44.94625 16.21159 29300 ft 462 kts 50°
2026-05-05 08:21 44.96600 16.24745 29641 ft 463 kts 46°
2026-05-05 08:21 44.98854 16.27976 29987 ft 462 kts 37°
2026-05-05 08:21 45.01421 16.30678 30379 ft 457 kts 28°
2026-05-05 08:21 45.04211 16.32778 30802 ft 452 kts 20°
2026-05-05 08:22 45.07139 16.34353 31233 ft 449 kts 17°
2026-05-05 08:22 45.10070 16.35865 31643 ft 449 kts 17°
2026-05-05 08:22 45.13001 16.37386 32066 ft 448 kts 17°
2026-05-05 08:22 45.15927 16.38909 32490 ft 447 kts 17°
2026-05-05 08:23 45.18844 16.40428 32914 ft 447 kts 17°
2026-05-05 08:23 45.21761 16.41950 33331 ft 446 kts 17°
2026-05-05 08:23 45.24712 16.43490 33742 ft 446 kts 18°
2026-05-05 08:23 45.27624 16.45011 34135 ft 445 kts 18°
2026-05-05 08:24 45.30533 16.46531 34485 ft 445 kts 17°
2026-05-05 08:24 45.33440 16.48051 34809 ft 445 kts 17°
2026-05-05 08:24 45.36348 16.49573 34991 ft 446 kts 17°
2026-05-05 08:24 45.39272 16.51104 35029 ft 450 kts 17°
2026-05-05 08:25 45.45199 16.54213 35028 ft 461 kts 18°
2026-05-05 08:25 45.51296 16.57421 35026 ft 469 kts 18°
2026-05-05 08:26 45.57422 16.60656 35023 ft 470 kts 18°
2026-05-05 08:26 45.63561 16.63899 35019 ft 470 kts 18°
2026-05-05 08:27 45.69696 16.67142 35018 ft 470 kts 18°
2026-05-05 08:27 45.75824 16.70399 35029 ft 470 kts 18°
2026-05-05 08:28 45.81954 16.73665 35032 ft 470 kts 18°
2026-05-05 08:28 45.87054 16.76381 35024 ft 470 kts 18°
2026-05-05 08:29 45.93228 16.79688 35031 ft 471 kts 18°
2026-05-05 08:30 46.02437 16.84620 35030 ft 471 kts 18°
2026-05-05 08:30 46.08573 16.87921 35028 ft 471 kts 18°
2026-05-05 08:31 46.14711 16.91226 35022 ft 471 kts 18°
2026-05-05 08:31 46.20850 16.94550 35023 ft 471 kts 18°
2026-05-05 08:32 46.26753 16.98672 35016 ft 474 kts 30°
2026-05-05 08:32 46.32379 17.03672 35014 ft 474 kts 30°
2026-05-05 08:33 46.38007 17.08661 35003 ft 474 kts 30°
2026-05-05 08:33 46.43640 17.13658 34996 ft 475 kts 30°
2026-05-05 08:34 46.49268 17.18684 34997 ft 475 kts 30°
2026-05-05 08:34 46.54896 17.23723 34986 ft 476 kts 30°
2026-05-05 08:35 46.60527 17.28771 34987 ft 476 kts 30°
2026-05-05 08:35 46.66173 17.33832 34988 ft 476 kts 30°
2026-05-05 08:36 46.71846 17.38952 34989 ft 477 kts 30°
2026-05-05 08:36 46.77446 17.44031 34985 ft 477 kts 30°
2026-05-05 08:37 46.83123 17.49172 34994 ft 478 kts 30°
2026-05-05 08:37 46.88776 17.54296 34998 ft 478 kts 30°
2026-05-05 08:38 46.94423 17.59430 34991 ft 478 kts 30°
2026-05-05 08:38 47.00074 17.64586 34990 ft 479 kts 30°
2026-05-05 08:39 47.05721 17.69759 34985 ft 479 kts 30°
2026-05-05 08:39 47.11366 17.74944 34984 ft 479 kts 30°
2026-05-05 08:40 47.17011 17.80139 34978 ft 478 kts 30°
2026-05-05 08:40 47.22654 17.85329 34973 ft 479 kts 30°
2026-05-05 08:41 47.28296 17.90531 34975 ft 479 kts 30°
2026-05-05 08:41 47.33935 17.95753 34979 ft 479 kts 30°
2026-05-05 08:42 47.39573 18.01005 34977 ft 479 kts 31°
2026-05-05 08:42 47.45211 18.06265 34979 ft 480 kts 31°
2026-05-05 08:43 47.50891 18.11566 34979 ft 479 kts 31°
2026-05-05 08:43 47.56531 18.16844 34977 ft 479 kts 31°
2026-05-05 08:44 47.62164 18.22127 34982 ft 479 kts 31°
2026-05-05 08:44 47.67795 18.27423 34980 ft 479 kts 31°
2026-05-05 08:45 47.73425 18.32731 34983 ft 479 kts 31°
2026-05-05 08:45 47.79075 18.37966 34985 ft 478 kts 30°
2026-05-05 08:46 47.84765 18.43079 34989 ft 478 kts 29°
2026-05-05 08:46 47.90464 18.48195 34987 ft 478 kts 30°
2026-05-05 08:47 47.96141 18.53361 34988 ft 478 kts 30°
2026-05-05 08:47 48.01805 18.58565 34986 ft 478 kts 30°
2026-05-05 08:48 48.07459 18.63769 34987 ft 478 kts 30°
2026-05-05 08:48 48.13126 18.68960 34989 ft 478 kts 30°
2026-05-05 08:49 48.18822 18.74212 34991 ft 478 kts 30°
2026-05-05 08:49 48.24448 18.79421 34989 ft 478 kts 30°
2026-05-05 08:50 48.30139 18.84700 34988 ft 478 kts 30°
2026-05-05 08:50 48.35800 18.89960 34992 ft 478 kts 30°
2026-05-05 08:51 48.41456 18.95231 34993 ft 478 kts 30°
2026-05-05 08:51 48.47116 19.00515 34995 ft 479 kts 30°
2026-05-05 08:52 48.52775 19.05816 34996 ft 479 kts 30°
2026-05-05 08:52 48.58437 19.11133 35000 ft 479 kts 30°
2026-05-05 08:53 48.64093 19.16469 35000 ft 479 kts 31°
2026-05-05 08:53 48.69748 19.21811 35005 ft 479 kts 31°
2026-05-05 08:54 48.75401 19.27159 35009 ft 479 kts 30°
2026-05-05 08:54 48.81056 19.32524 35004 ft 480 kts 30°
2026-05-05 08:55 48.86720 19.37904 35005 ft 480 kts 30°
2026-05-05 08:55 48.92379 19.43317 35009 ft 481 kts 30°
2026-05-05 08:56 48.98032 19.48737 35000 ft 481 kts 30°
2026-05-05 08:56 49.00726 19.51755 34998 ft 483 kts 42°
2026-05-05 08:56 49.02900 19.55673 34999 ft 485 kts 54°
2026-05-05 08:57 49.06773 19.64080 34999 ft 485 kts 54°
2026-05-05 08:57 49.10632 19.72530 35010 ft 486 kts 54°
2026-05-05 08:58 49.14510 19.81062 35020 ft 486 kts 54°
2026-05-05 08:58 49.18362 19.89541 35032 ft 485 kts 54°
2026-05-05 08:59 49.22205 19.98011 35035 ft 485 kts 54°
2026-05-05 08:59 49.24126 20.02250 34717 ft 483 kts 54°
2026-05-05 08:59 49.26029 20.06465 34455 ft 482 kts 54°
2026-05-05 08:59 49.27930 20.10693 34215 ft 482 kts 54°
2026-05-05 09:00 49.29831 20.14926 33967 ft 482 kts 54°
2026-05-05 09:00 49.31733 20.19161 33692 ft 483 kts 54°
2026-05-05 09:00 49.33639 20.23408 33412 ft 483 kts 54°
2026-05-05 09:00 49.34899 20.26220 33007 ft 484 kts 54°
2026-05-05 09:01 49.36802 20.30479 32276 ft 481 kts 54°
2026-05-05 09:01 49.38694 20.34723 31730 ft 483 kts 54°
2026-05-05 09:01 49.40598 20.38987 31123 ft 484 kts 54°
2026-05-05 09:01 49.42502 20.43253 30523 ft 485 kts 54°
2026-05-05 09:02 49.44411 20.47541 29892 ft 486 kts 54°
2026-05-05 09:02 49.46322 20.51845 29260 ft 488 kts 55°
2026-05-05 09:02 49.48233 20.56162 28642 ft 489 kts 55°
2026-05-05 09:02 49.50145 20.60489 28038 ft 490 kts 55°
2026-05-05 09:03 49.52087 20.64885 27424 ft 491 kts 55°
2026-05-05 09:03 49.54014 20.69245 26832 ft 493 kts 55°
2026-05-05 09:03 49.55940 20.73613 26224 ft 493 kts 55°
2026-05-05 09:03 49.57857 20.77973 25638 ft 489 kts 56°
2026-05-05 09:04 49.59755 20.82301 25074 ft 486 kts 56°
2026-05-05 09:04 49.61636 20.86598 24526 ft 482 kts 56°
2026-05-05 09:04 49.63503 20.90870 23979 ft 479 kts 56°
2026-05-05 09:04 49.65361 20.95127 23418 ft 477 kts 56°
2026-05-05 09:05 49.67210 20.99366 22840 ft 476 kts 56°
2026-05-05 09:05 49.69068 21.03630 22287 ft 480 kts 56°
2026-05-05 09:05 49.70927 21.07914 21708 ft 479 kts 56°
2026-05-05 09:05 49.72776 21.12181 21136 ft 477 kts 56°
2026-05-05 09:06 49.74616 21.16427 20536 ft 473 kts 56°
2026-05-05 09:06 49.76440 21.20641 19935 ft 471 kts 56°
2026-05-05 09:06 49.78262 21.24860 19323 ft 472 kts 56°
2026-05-05 09:06 49.80086 21.29098 18706 ft 474 kts 56°
2026-05-05 09:07 49.81896 21.33317 18168 ft 464 kts 56°
2026-05-05 09:07 49.83637 21.37372 17950 ft 443 kts 56°
2026-05-05 09:07 49.85327 21.41310 17301 ft 437 kts 56°
2026-05-05 09:07 49.87008 21.45232 16444 ft 437 kts 56°
2026-05-05 09:08 49.88686 21.49160 15662 ft 437 kts 57°
2026-05-05 09:08 49.90372 21.53112 15090 ft 441 kts 57°
2026-05-05 09:08 49.92087 21.57139 14483 ft 442 kts 57°
2026-05-05 09:08 49.93765 21.61078 13887 ft 444 kts 57°
2026-05-05 09:09 49.95471 21.65086 13231 ft 444 kts 57°
2026-05-05 09:09 49.97165 21.69075 12943 ft 428 kts 57°
2026-05-05 09:09 49.98621 21.72983 12805 ft 407 kts 68°
2026-05-05 09:09 49.99428 21.76999 12622 ft 373 kts 81°
2026-05-05 09:10 49.99842 21.80859 12139 ft 357 kts 82°
2026-05-05 09:10 50.00239 21.84636 11919 ft 348 kts 83°
2026-05-05 09:10 50.00623 21.88286 11792 ft 337 kts 83°
2026-05-05 09:10 50.00991 21.91830 11664 ft 327 kts 83°
2026-05-05 09:11 50.01346 21.95267 11517 ft 319 kts 83°
2026-05-05 09:11 50.01693 21.98648 11248 ft 315 kts 83°
2026-05-05 09:11 50.02039 22.01997 10938 ft 313 kts 83°
2026-05-05 09:11 50.02174 22.05354 10617 ft 310 kts 92°
2026-05-05 09:12 50.02177 22.08692 10310 ft 309 kts 92°
2026-05-05 09:12 50.01940 22.11964 9990 ft 301 kts 113°
2026-05-05 09:12 50.00905 22.14641 9846 ft 281 kts 140°
2026-05-05 09:12 49.99319 22.16187 9720 ft 263 kts 168°
2026-05-05 09:13 49.97572 22.16341 9573 ft 246 kts 196°
2026-05-05 09:13 49.96109 22.15156 9445 ft 235 kts 226°
2026-05-05 09:13 49.95302 22.13009 9260 ft 234 kts 255°
2026-05-05 09:13 49.95367 22.10494 9042 ft 241 kts 287°
2026-05-05 09:14 49.96308 22.08324 8842 ft 251 kts 317°
2026-05-05 09:14 49.97900 22.07100 8474 ft 264 kts 346°
2026-05-05 09:14 49.99749 22.07227 8097 ft 274 kts 16°
2026-05-05 09:14 50.01401 22.08729 7716 ft 280 kts 46°
2026-05-05 09:15 50.02433 22.11265 7344 ft 278 kts 75°
2026-05-05 09:15 50.02724 22.14216 6987 ft 277 kts 94°
2026-05-05 09:15 50.02634 22.17216 6622 ft 279 kts 96°
2026-05-05 09:15 50.02548 22.20202 6246 ft 273 kts 95°
2026-05-05 09:16 50.02471 22.23113 5862 ft 266 kts 95°
2026-05-05 09:16 50.02398 22.25919 5674 ft 252 kts 95°
2026-05-05 09:16 50.02622 22.28530 5542 ft 239 kts 70°
2026-05-05 09:16 50.03496 22.30654 5414 ft 234 kts 43°
2026-05-05 09:17 50.04884 22.32013 5275 ft 235 kts 16°
2026-05-05 09:17 50.06491 22.32369 4944 ft 232 kts 357°
2026-05-05 09:17 50.08095 22.32312 4571 ft 228 kts 344°
2026-05-05 09:17 50.09495 22.31317 4215 ft 221 kts 315°
2026-05-05 09:18 50.10392 22.29436 3884 ft 215 kts 287°
2026-05-05 09:18 50.10643 22.27173 3515 ft 212 kts 267°
2026-05-05 09:18 50.10673 22.24911 3229 ft 206 kts 267°
2026-05-05 09:18 50.10697 22.22704 2951 ft 202 kts 265°
2026-05-05 09:19 50.10729 22.20561 2733 ft 193 kts 266°
2026-05-05 09:19 50.10760 22.18541 2451 ft 181 kts 266°
2026-05-05 09:19 50.10789 22.16648 2224 ft 165 kts 267°
2026-05-05 09:19 50.10815 22.14961 1999 ft 147 kts 265°
2026-05-05 09:20 50.10837 22.13427 1815 ft 139 kts 264°
2026-05-05 09:20 50.10857 22.11936 1646 ft 135 kts 264°
2026-05-05 09:20 50.10878 22.10482 1431 ft 134 kts 264°
2026-05-05 09:20 50.10896 22.09035 1223 ft 132 kts 265°
2026-05-05 09:21 50.10913 22.07580 1009 ft 136 kts 267°
2026-05-05 09:21 50.10936 22.06124 891 ft 134 kts 268°
2026-05-05 09:21 50.10959 22.04677 719 ft 134 kts 264°
2026-05-05 09:21 50.10974 22.03365 690 ft 90 kts 272°
2026-05-05 09:22 50.10983 22.02769 693 ft 41 kts 268°
2026-05-05 09:22 50.10986 22.02490 696 ft 21 kts 271°
2026-05-05 09:22 50.10997 22.02337 690 ft 13 kts 295°
2026-05-05 09:22 50.11081 22.02299 686 ft 15 kts
2026-05-05 09:23 50.11193 22.02301 690 ft 14 kts
2026-05-05 09:23 50.11284 22.02306 691 ft 13 kts
2026-05-05 09:23 50.11323 22.02415 689 ft 13 kts 96°
2026-05-05 09:23 50.11322 22.02566 690 ft 14 kts 91°
2026-05-05 09:24 50.11340 22.02633 685 ft 5 kts 349°
2026-05-05 09:24 50.11380 22.02626 689 ft 7 kts
2026-05-05 09:24 50.11423 22.02627 689 ft 2 kts
2026-05-05 09:24 50.11427 22.02628 688 ft 0 kts